locationName,lineName,date,time,countIn,countOut
�n����ʂ�,3_1_3,2022/4/1,0:00,1,1
�n����ʂ�,3_1_3,2022/4/1,1:00,0,0
�n����ʂ�,3_1_3,2022/4/1,2:00,2,0
�n����ʂ�,3_1_3,2022/4/1,3:00,1,2
�n����ʂ�,3_1_3,2022/4/1,4:00,4,1
�n����ʂ�,3_1_3,2022/4/1,5:00,13,10
�n����ʂ�,3_1_3,2022/4/1,6:00,27,34
�n����ʂ�,3_1_3,2022/4/1,7:00,57,148
�n����ʂ�,3_1_3,2022/4/1,8:00,119,269
�n����ʂ�,3_1_3,2022/4/1,9:00,164,138
�n����ʂ�,3_1_3,2022/4/1,10:00,200,234
�n����ʂ�,3_1_3,2022/4/1,11:00,299,198
�n����ʂ�,3_1_3,2022/4/1,12:00,345,331
�n����ʂ�,3_1_3,2022/4/1,13:00,364,317
�n����ʂ�,3_1_3,2022/4/1,14:00,382,301
�n����ʂ�,3_1_3,2022/4/1,15:00,335,182
�n����ʂ�,3_1_3,2022/4/1,16:00,340,186
�n����ʂ�,3_1_3,2022/4/1,17:00,289,161
�n����ʂ�,3_1_3,2022/4/1,18:00,168,153
�n����ʂ�,3_1_3,2022/4/1,19:00,85,82
�n����ʂ�,3_1_3,2022/4/1,20:00,53,33
�n����ʂ�,3_1_3,2022/4/1,21:00,29,5
�n����ʂ�,3_1_3,2022/4/1,22:00,12,1
�n����ʂ�,3_1_3,2022/4/1,23:00,8,5
�n����ʂ�,3_1_3,2022/4/2,0:00,3,0
�n����ʂ�,3_1_3,2022/4/2,1:00,5,0
�n����ʂ�,3_1_3,2022/4/2,2:00,1,0
�n����ʂ�,3_1_3,2022/4/2,3:00,3,2
�n����ʂ�,3_1_3,2022/4/2,4:00,4,1
�n����ʂ�,3_1_3,2022/4/2,5:00,14,12
�n����ʂ�,3_1_3,2022/4/2,6:00,25,30
�n����ʂ�,3_1_3,2022/4/2,7:00,48,62
�n����ʂ�,3_1_3,2022/4/2,8:00,95,124
�n����ʂ�,3_1_3,2022/4/2,9:00,158,199
�n����ʂ�,3_1_3,2022/4/2,10:00,270,391
�n����ʂ�,3_1_3,2022/4/2,11:00,407,398
�n����ʂ�,3_1_3,2022/4/2,12:00,487,560
�n����ʂ�,3_1_3,2022/4/2,13:00,572,516
�n����ʂ�,3_1_3,2022/4/2,14:00,597,504
�n����ʂ�,3_1_3,2022/4/2,15:00,691,462
�n����ʂ�,3_1_3,2022/4/2,16:00,624,388
�n����ʂ�,3_1_3,2022/4/2,17:00,503,309
�n����ʂ�,3_1_3,2022/4/2,18:00,257,192
�n����ʂ�,3_1_3,2022/4/2,19:00,160,136
�n����ʂ�,3_1_3,2022/4/2,20:00,107,45
�n����ʂ�,3_1_3,2022/4/2,21:00,18,5
�n����ʂ�,3_1_3,2022/4/2,22:00,15,5
�n����ʂ�,3_1_3,2022/4/2,23:00,14,6
�n����ʂ�,3_1_3,2022/4/3,0:00,3,2
�n����ʂ�,3_1_3,2022/4/3,1:00,7,0
�n����ʂ�,3_1_3,2022/4/3,2:00,2,2
�n����ʂ�,3_1_3,2022/4/3,3:00,3,1
�n����ʂ�,3_1_3,2022/4/3,4:00,1,1
�n����ʂ�,3_1_3,2022/4/3,5:00,10,13
�n����ʂ�,3_1_3,2022/4/3,6:00,16,23
�n����ʂ�,3_1_3,2022/4/3,7:00,49,26
�n����ʂ�,3_1_3,2022/4/3,8:00,88,103
�n����ʂ�,3_1_3,2022/4/3,9:00,155,198
�n����ʂ�,3_1_3,2022/4/3,10:00,358,329
�n����ʂ�,3_1_3,2022/4/3,11:00,409,414
�n����ʂ�,3_1_3,2022/4/3,12:00,567,570
�n����ʂ�,3_1_3,2022/4/3,13:00,631,520
�n����ʂ�,3_1_3,2022/4/3,14:00,723,534
�n����ʂ�,3_1_3,2022/4/3,15:00,735,458
�n����ʂ�,3_1_3,2022/4/3,16:00,660,382
�n����ʂ�,3_1_3,2022/4/3,17:00,480,279
�n����ʂ�,3_1_3,2022/4/3,18:00,231,172
�n����ʂ�,3_1_3,2022/4/3,19:00,106,86
�n����ʂ�,3_1_3,2022/4/3,20:00,43,37
�n����ʂ�,3_1_3,2022/4/3,21:00,23,5
�n����ʂ�,3_1_3,2022/4/3,22:00,14,0
�n����ʂ�,3_1_3,2022/4/3,23:00,4,1
�n����ʂ�,3_1_3,2022/4/4,0:00,1,0
�n����ʂ�,3_1_3,2022/4/4,1:00,1,1
�n����ʂ�,3_1_3,2022/4/4,2:00,0,0
�n����ʂ�,3_1_3,2022/4/4,3:00,1,1
�n����ʂ�,3_1_3,2022/4/4,4:00,5,1
�n����ʂ�,3_1_3,2022/4/4,5:00,14,12
�n����ʂ�,3_1_3,2022/4/4,6:00,29,38
�n����ʂ�,3_1_3,2022/4/4,7:00,62,130
�n����ʂ�,3_1_3,2022/4/4,8:00,85,260
�n����ʂ�,3_1_3,2022/4/4,9:00,143,134
�n����ʂ�,3_1_3,2022/4/4,10:00,206,209
�n����ʂ�,3_1_3,2022/4/4,11:00,281,231
�n����ʂ�,3_1_3,2022/4/4,12:00,329,316
�n����ʂ�,3_1_3,2022/4/4,13:00,282,312
�n����ʂ�,3_1_3,2022/4/4,14:00,398,240
�n����ʂ�,3_1_3,2022/4/4,15:00,359,225
�n����ʂ�,3_1_3,2022/4/4,16:00,291,185
�n����ʂ�,3_1_3,2022/4/4,17:00,315,127
�n����ʂ�,3_1_3,2022/4/4,18:00,156,109
�n����ʂ�,3_1_3,2022/4/4,19:00,103,61
�n����ʂ�,3_1_3,2022/4/4,20:00,69,35
�n����ʂ�,3_1_3,2022/4/4,21:00,20,3
�n����ʂ�,3_1_3,2022/4/4,22:00,3,5
�n����ʂ�,3_1_3,2022/4/4,23:00,3,1
�n����ʂ�,3_1_3,2022/4/5,0:00,2,0
�n����ʂ�,3_1_3,2022/4/5,1:00,3,0
�n����ʂ�,3_1_3,2022/4/5,2:00,0,1
�n����ʂ�,3_1_3,2022/4/5,3:00,1,1
�n����ʂ�,3_1_3,2022/4/5,4:00,0,1
�n����ʂ�,3_1_3,2022/4/5,5:00,18,16
�n����ʂ�,3_1_3,2022/4/5,6:00,33,39
�n����ʂ�,3_1_3,2022/4/5,7:00,57,111
�n����ʂ�,3_1_3,2022/4/5,8:00,107,239
�n����ʂ�,3_1_3,2022/4/5,9:00,138,132
�n����ʂ�,3_1_3,2022/4/5,10:00,183,240
�n����ʂ�,3_1_3,2022/4/5,11:00,246,219
�n����ʂ�,3_1_3,2022/4/5,12:00,268,268
�n����ʂ�,3_1_3,2022/4/5,13:00,325,260
�n����ʂ�,3_1_3,2022/4/5,14:00,371,256
�n����ʂ�,3_1_3,2022/4/5,15:00,352,205
�n����ʂ�,3_1_3,2022/4/5,16:00,226,165
�n����ʂ�,3_1_3,2022/4/5,17:00,269,139
�n����ʂ�,3_1_3,2022/4/5,18:00,146,65
�n����ʂ�,3_1_3,2022/4/5,19:00,65,60
�n����ʂ�,3_1_3,2022/4/5,20:00,42,27
�n����ʂ�,3_1_3,2022/4/5,21:00,12,6
�n����ʂ�,3_1_3,2022/4/5,22:00,8,1
�n����ʂ�,3_1_3,2022/4/5,23:00,0,2
�n����ʂ�,3_1_3,2022/4/6,0:00,2,0
�n����ʂ�,3_1_3,2022/4/6,1:00,0,0
�n����ʂ�,3_1_3,2022/4/6,2:00,2,1
�n����ʂ�,3_1_3,2022/4/6,3:00,1,2
�n����ʂ�,3_1_3,2022/4/6,4:00,7,4
�n����ʂ�,3_1_3,2022/4/6,5:00,18,13
�n����ʂ�,3_1_3,2022/4/6,6:00,33,48
�n����ʂ�,3_1_3,2022/4/6,7:00,71,271
�n����ʂ�,3_1_3,2022/4/6,8:00,122,355
�n����ʂ�,3_1_3,2022/4/6,9:00,149,120
�n����ʂ�,3_1_3,2022/4/6,10:00,191,207
�n����ʂ�,3_1_3,2022/4/6,11:00,202,182
�n����ʂ�,3_1_3,2022/4/6,12:00,298,199
�n����ʂ�,3_1_3,2022/4/6,13:00,394,282
�n����ʂ�,3_1_3,2022/4/6,14:00,286,176
�n����ʂ�,3_1_3,2022/4/6,15:00,240,144
�n����ʂ�,3_1_3,2022/4/6,16:00,303,147
�n����ʂ�,3_1_3,2022/4/6,17:00,269,124
�n����ʂ�,3_1_3,2022/4/6,18:00,120,103
�n����ʂ�,3_1_3,2022/4/6,19:00,71,78
�n����ʂ�,3_1_3,2022/4/6,20:00,71,30
�n����ʂ�,3_1_3,2022/4/6,21:00,21,8
�n����ʂ�,3_1_3,2022/4/6,22:00,13,5
�n����ʂ�,3_1_3,2022/4/6,23:00,1,1
�n����ʂ�,3_1_3,2022/4/7,0:00,2,1
�n����ʂ�,3_1_3,2022/4/7,1:00,0,0
�n����ʂ�,3_1_3,2022/4/7,2:00,0,2
�n����ʂ�,3_1_3,2022/4/7,3:00,1,1
�n����ʂ�,3_1_3,2022/4/7,4:00,4,4
�n����ʂ�,3_1_3,2022/4/7,5:00,11,18
�n����ʂ�,3_1_3,2022/4/7,6:00,35,31
�n����ʂ�,3_1_3,2022/4/7,7:00,42,122
�n����ʂ�,3_1_3,2022/4/7,8:00,79,206
�n����ʂ�,3_1_3,2022/4/7,9:00,118,118
�n����ʂ�,3_1_3,2022/4/7,10:00,138,140
�n����ʂ�,3_1_3,2022/4/7,11:00,150,272
�n����ʂ�,3_1_3,2022/4/7,12:00,294,215
�n����ʂ�,3_1_3,2022/4/7,13:00,225,141
�n����ʂ�,3_1_3,2022/4/7,14:00,227,149
�n����ʂ�,3_1_3,2022/4/7,15:00,216,130
�n����ʂ�,3_1_3,2022/4/7,16:00,219,124
�n����ʂ�,3_1_3,2022/4/7,17:00,241,100
�n����ʂ�,3_1_3,2022/4/7,18:00,141,94
�n����ʂ�,3_1_3,2022/4/7,19:00,67,67
�n����ʂ�,3_1_3,2022/4/7,20:00,33,32
�n����ʂ�,3_1_3,2022/4/7,21:00,20,2
�n����ʂ�,3_1_3,2022/4/7,22:00,8,4
�n����ʂ�,3_1_3,2022/4/7,23:00,2,0
�n����ʂ�,3_1_3,2022/4/8,0:00,4,2
�n����ʂ�,3_1_3,2022/4/8,1:00,2,1
�n����ʂ�,3_1_3,2022/4/8,2:00,3,1
�n����ʂ�,3_1_3,2022/4/8,3:00,1,3
�n����ʂ�,3_1_3,2022/4/8,4:00,2,0
�n����ʂ�,3_1_3,2022/4/8,5:00,18,11
�n����ʂ�,3_1_3,2022/4/8,6:00,45,45
�n����ʂ�,3_1_3,2022/4/8,7:00,80,397
�n����ʂ�,3_1_3,2022/4/8,8:00,115,409
�n����ʂ�,3_1_3,2022/4/8,9:00,146,122
�n����ʂ�,3_1_3,2022/4/8,10:00,177,190
�n����ʂ�,3_1_3,2022/4/8,11:00,201,171
�n����ʂ�,3_1_3,2022/4/8,12:00,196,214
�n����ʂ�,3_1_3,2022/4/8,13:00,242,178
�n����ʂ�,3_1_3,2022/4/8,14:00,226,175
�n����ʂ�,3_1_3,2022/4/8,15:00,308,122
�n����ʂ�,3_1_3,2022/4/8,16:00,307,147
�n����ʂ�,3_1_3,2022/4/8,17:00,296,108
�n����ʂ�,3_1_3,2022/4/8,18:00,272,130
�n����ʂ�,3_1_3,2022/4/8,19:00,98,109
�n����ʂ�,3_1_3,2022/4/8,20:00,53,49
�n����ʂ�,3_1_3,2022/4/8,21:00,22,6
�n����ʂ�,3_1_3,2022/4/8,22:00,14,3
�n����ʂ�,3_1_3,2022/4/8,23:00,7,0
�n����ʂ�,3_1_3,2022/4/9,0:00,7,2
�n����ʂ�,3_1_3,2022/4/9,1:00,11,1
�n����ʂ�,3_1_3,2022/4/9,2:00,8,2
�n����ʂ�,3_1_3,2022/4/9,3:00,2,3
�n����ʂ�,3_1_3,2022/4/9,4:00,3,3
�n����ʂ�,3_1_3,2022/4/9,5:00,18,9
�n����ʂ�,3_1_3,2022/4/9,6:00,26,31
�n����ʂ�,3_1_3,2022/4/9,7:00,39,80
�n����ʂ�,3_1_3,2022/4/9,8:00,100,131
�n����ʂ�,3_1_3,2022/4/9,9:00,131,171
�n����ʂ�,3_1_3,2022/4/9,10:00,226,234
�n����ʂ�,3_1_3,2022/4/9,11:00,334,336
�n����ʂ�,3_1_3,2022/4/9,12:00,404,383
�n����ʂ�,3_1_3,2022/4/9,13:00,403,372
�n����ʂ�,3_1_3,2022/4/9,14:00,483,398
�n����ʂ�,3_1_3,2022/4/9,15:00,411,302
�n����ʂ�,3_1_3,2022/4/9,16:00,334,239
�n����ʂ�,3_1_3,2022/4/9,17:00,267,162
�n����ʂ�,3_1_3,2022/4/9,18:00,134,148
�n����ʂ�,3_1_3,2022/4/9,19:00,78,106
�n����ʂ�,3_1_3,2022/4/9,20:00,48,56
�n����ʂ�,3_1_3,2022/4/9,21:00,32,9
�n����ʂ�,3_1_3,2022/4/9,22:00,8,4
�n����ʂ�,3_1_3,2022/4/9,23:00,12,1
�n����ʂ�,3_1_3,2022/4/10,0:00,7,1
�n����ʂ�,3_1_3,2022/4/10,1:00,3,1
�n����ʂ�,3_1_3,2022/4/10,2:00,2,0
�n����ʂ�,3_1_3,2022/4/10,3:00,1,2
�n����ʂ�,3_1_3,2022/4/10,4:00,0,1
�n����ʂ�,3_1_3,2022/4/10,5:00,18,8
�n����ʂ�,3_1_3,2022/4/10,6:00,26,26
�n����ʂ�,3_1_3,2022/4/10,7:00,49,42
�n����ʂ�,3_1_3,2022/4/10,8:00,78,88
�n����ʂ�,3_1_3,2022/4/10,9:00,125,140
�n����ʂ�,3_1_3,2022/4/10,10:00,265,327
�n����ʂ�,3_1_3,2022/4/10,11:00,352,349
�n����ʂ�,3_1_3,2022/4/10,12:00,371,403
�n����ʂ�,3_1_3,2022/4/10,13:00,432,414
�n����ʂ�,3_1_3,2022/4/10,14:00,501,417
�n����ʂ�,3_1_3,2022/4/10,15:00,405,379
�n����ʂ�,3_1_3,2022/4/10,16:00,370,274
�n����ʂ�,3_1_3,2022/4/10,17:00,215,148
�n����ʂ�,3_1_3,2022/4/10,18:00,143,89
�n����ʂ�,3_1_3,2022/4/10,19:00,44,83
�n����ʂ�,3_1_3,2022/4/10,20:00,18,28
�n����ʂ�,3_1_3,2022/4/10,21:00,4,2
�n����ʂ�,3_1_3,2022/4/10,22:00,10,4
�n����ʂ�,3_1_3,2022/4/10,23:00,5,1
�n����ʂ�,3_1_3,2022/4/11,0:00,2,1
�n����ʂ�,3_1_3,2022/4/11,1:00,0,0
�n����ʂ�,3_1_3,2022/4/11,2:00,1,0
�n����ʂ�,3_1_3,2022/4/11,3:00,0,0
�n����ʂ�,3_1_3,2022/4/11,4:00,3,3
�n����ʂ�,3_1_3,2022/4/11,5:00,11,17
�n����ʂ�,3_1_3,2022/4/11,6:00,43,39
�n����ʂ�,3_1_3,2022/4/11,7:00,68,419
�n����ʂ�,3_1_3,2022/4/11,8:00,98,302
�n����ʂ�,3_1_3,2022/4/11,9:00,162,119
�n����ʂ�,3_1_3,2022/4/11,10:00,177,155
�n����ʂ�,3_1_3,2022/4/11,11:00,182,138
�n����ʂ�,3_1_3,2022/4/11,12:00,203,179
�n����ʂ�,3_1_3,2022/4/11,13:00,241,201
�n����ʂ�,3_1_3,2022/4/11,14:00,188,148
�n����ʂ�,3_1_3,2022/4/11,15:00,247,137
�n����ʂ�,3_1_3,2022/4/11,16:00,252,120
�n����ʂ�,3_1_3,2022/4/11,17:00,237,89
�n����ʂ�,3_1_3,2022/4/11,18:00,273,76
�n����ʂ�,3_1_3,2022/4/11,19:00,62,65
�n����ʂ�,3_1_3,2022/4/11,20:00,47,23
�n����ʂ�,3_1_3,2022/4/11,21:00,16,2
�n����ʂ�,3_1_3,2022/4/11,22:00,4,3
�n����ʂ�,3_1_3,2022/4/11,23:00,5,3
�n����ʂ�,3_1_3,2022/4/12,0:00,5,0
�n����ʂ�,3_1_3,2022/4/12,1:00,2,0
�n����ʂ�,3_1_3,2022/4/12,2:00,1,1
�n����ʂ�,3_1_3,2022/4/12,3:00,2,3
�n����ʂ�,3_1_3,2022/4/12,4:00,7,2
�n����ʂ�,3_1_3,2022/4/12,5:00,16,14
�n����ʂ�,3_1_3,2022/4/12,6:00,43,49
�n����ʂ�,3_1_3,2022/4/12,7:00,89,405
�n����ʂ�,3_1_3,2022/4/12,8:00,91,289
�n����ʂ�,3_1_3,2022/4/12,9:00,148,118
�n����ʂ�,3_1_3,2022/4/12,10:00,137,141
�n����ʂ�,3_1_3,2022/4/12,11:00,175,133
�n����ʂ�,3_1_3,2022/4/12,12:00,194,190
�n����ʂ�,3_1_3,2022/4/12,13:00,160,188
�n����ʂ�,3_1_3,2022/4/12,14:00,161,130
�n����ʂ�,3_1_3,2022/4/12,15:00,167,114
�n����ʂ�,3_1_3,2022/4/12,16:00,211,112
�n����ʂ�,3_1_3,2022/4/12,17:00,296,102
�n����ʂ�,3_1_3,2022/4/12,18:00,319,111
�n����ʂ�,3_1_3,2022/4/12,19:00,68,71
�n����ʂ�,3_1_3,2022/4/12,20:00,55,32
�n����ʂ�,3_1_3,2022/4/12,21:00,14,0
�n����ʂ�,3_1_3,2022/4/12,22:00,9,1
�n����ʂ�,3_1_3,2022/4/12,23:00,0,2
�n����ʂ�,3_1_3,2022/4/13,0:00,0,1
�n����ʂ�,3_1_3,2022/4/13,1:00,1,2
�n����ʂ�,3_1_3,2022/4/13,2:00,0,2
�n����ʂ�,3_1_3,2022/4/13,3:00,2,1
�n����ʂ�,3_1_3,2022/4/13,4:00,4,2
�n����ʂ�,3_1_3,2022/4/13,5:00,16,20
�n����ʂ�,3_1_3,2022/4/13,6:00,42,51
�n����ʂ�,3_1_3,2022/4/13,7:00,81,327
�n����ʂ�,3_1_3,2022/4/13,8:00,93,263
�n����ʂ�,3_1_3,2022/4/13,9:00,126,106
�n����ʂ�,3_1_3,2022/4/13,10:00,133,118
�n����ʂ�,3_1_3,2022/4/13,11:00,165,155
�n����ʂ�,3_1_3,2022/4/13,12:00,224,182
�n����ʂ�,3_1_3,2022/4/13,13:00,183,175
�n����ʂ�,3_1_3,2022/4/13,14:00,164,105
�n����ʂ�,3_1_3,2022/4/13,15:00,125,99
�n����ʂ�,3_1_3,2022/4/13,16:00,383,102
�n����ʂ�,3_1_3,2022/4/13,17:00,309,92
�n����ʂ�,3_1_3,2022/4/13,18:00,131,99
�n����ʂ�,3_1_3,2022/4/13,19:00,71,78
�n����ʂ�,3_1_3,2022/4/13,20:00,45,27
�n����ʂ�,3_1_3,2022/4/13,21:00,19,1
�n����ʂ�,3_1_3,2022/4/13,22:00,8,3
�n����ʂ�,3_1_3,2022/4/13,23:00,8,2
�n����ʂ�,3_1_3,2022/4/14,0:00,4,0
�n����ʂ�,3_1_3,2022/4/14,1:00,4,0
�n����ʂ�,3_1_3,2022/4/14,2:00,2,1
�n����ʂ�,3_1_3,2022/4/14,3:00,2,2
�n����ʂ�,3_1_3,2022/4/14,4:00,2,1
�n����ʂ�,3_1_3,2022/4/14,5:00,17,12
�n����ʂ�,3_1_3,2022/4/14,6:00,29,31
�n����ʂ�,3_1_3,2022/4/14,7:00,66,162
�n����ʂ�,3_1_3,2022/4/14,8:00,54,147
�n����ʂ�,3_1_3,2022/4/14,9:00,94,94
�n����ʂ�,3_1_3,2022/4/14,10:00,72,69
�n����ʂ�,3_1_3,2022/4/14,11:00,80,71
�n����ʂ�,3_1_3,2022/4/14,12:00,121,109
�n����ʂ�,3_1_3,2022/4/14,13:00,90,65
�n����ʂ�,3_1_3,2022/4/14,14:00,79,74
�n����ʂ�,3_1_3,2022/4/14,15:00,106,69
�n����ʂ�,3_1_3,2022/4/14,16:00,139,94
�n����ʂ�,3_1_3,2022/4/14,17:00,230,57
�n����ʂ�,3_1_3,2022/4/14,18:00,145,79
�n����ʂ�,3_1_3,2022/4/14,19:00,45,35
�n����ʂ�,3_1_3,2022/4/14,20:00,42,25
�n����ʂ�,3_1_3,2022/4/14,21:00,26,5
�n����ʂ�,3_1_3,2022/4/14,22:00,7,1
�n����ʂ�,3_1_3,2022/4/14,23:00,5,2
�n����ʂ�,3_1_3,2022/4/15,0:00,2,0
�n����ʂ�,3_1_3,2022/4/15,1:00,1,0
�n����ʂ�,3_1_3,2022/4/15,2:00,1,2
�n����ʂ�,3_1_3,2022/4/15,3:00,1,2
�n����ʂ�,3_1_3,2022/4/15,4:00,0,1
�n����ʂ�,3_1_3,2022/4/15,5:00,18,14
�n����ʂ�,3_1_3,2022/4/15,6:00,40,38
�n����ʂ�,3_1_3,2022/4/15,7:00,91,368
�n����ʂ�,3_1_3,2022/4/15,8:00,105,329
�n����ʂ�,3_1_3,2022/4/15,9:00,161,112
�n����ʂ�,3_1_3,2022/4/15,10:00,243,173
�n����ʂ�,3_1_3,2022/4/15,11:00,267,225
�n����ʂ�,3_1_3,2022/4/15,12:00,308,260
�n����ʂ�,3_1_3,2022/4/15,13:00,293,213
�n����ʂ�,3_1_3,2022/4/15,14:00,192,192
�n����ʂ�,3_1_3,2022/4/15,15:00,207,127
�n����ʂ�,3_1_3,2022/4/15,16:00,239,143
�n����ʂ�,3_1_3,2022/4/15,17:00,238,112
�n����ʂ�,3_1_3,2022/4/15,18:00,281,110
�n����ʂ�,3_1_3,2022/4/15,19:00,57,82
�n����ʂ�,3_1_3,2022/4/15,20:00,36,41
�n����ʂ�,3_1_3,2022/4/15,21:00,29,10
�n����ʂ�,3_1_3,2022/4/15,22:00,10,5
�n����ʂ�,3_1_3,2022/4/15,23:00,11,3
�n����ʂ�,3_1_3,2022/4/16,0:00,11,2
�n����ʂ�,3_1_3,2022/4/16,1:00,6,0
�n����ʂ�,3_1_3,2022/4/16,2:00,1,1
�n����ʂ�,3_1_3,2022/4/16,3:00,4,2
�n����ʂ�,3_1_3,2022/4/16,4:00,3,0
�n����ʂ�,3_1_3,2022/4/16,5:00,11,13
�n����ʂ�,3_1_3,2022/4/16,6:00,30,36
�n����ʂ�,3_1_3,2022/4/16,7:00,51,93
�n����ʂ�,3_1_3,2022/4/16,8:00,93,105
�n����ʂ�,3_1_3,2022/4/16,9:00,131,125
�n����ʂ�,3_1_3,2022/4/16,10:00,198,169
�n����ʂ�,3_1_3,2022/4/16,11:00,227,216
�n����ʂ�,3_1_3,2022/4/16,12:00,298,307
�n����ʂ�,3_1_3,2022/4/16,13:00,345,300
�n����ʂ�,3_1_3,2022/4/16,14:00,430,322
�n����ʂ�,3_1_3,2022/4/16,15:00,367,207
�n����ʂ�,3_1_3,2022/4/16,16:00,272,223
�n����ʂ�,3_1_3,2022/4/16,17:00,263,177
�n����ʂ�,3_1_3,2022/4/16,18:00,162,147
�n����ʂ�,3_1_3,2022/4/16,19:00,84,100
�n����ʂ�,3_1_3,2022/4/16,20:00,33,6
�n����ʂ�,3_1_3,2022/4/16,21:00,27,8
�n����ʂ�,3_1_3,2022/4/16,22:00,19,3
�n����ʂ�,3_1_3,2022/4/16,23:00,10,4
�n����ʂ�,3_1_3,2022/4/17,0:00,6,0
�n����ʂ�,3_1_3,2022/4/17,1:00,1,0
�n����ʂ�,3_1_3,2022/4/17,2:00,1,0
�n����ʂ�,3_1_3,2022/4/17,3:00,3,2
�n����ʂ�,3_1_3,2022/4/17,4:00,3,1
�n����ʂ�,3_1_3,2022/4/17,5:00,18,8
�n����ʂ�,3_1_3,2022/4/17,6:00,31,20
�n����ʂ�,3_1_3,2022/4/17,7:00,40,82
�n����ʂ�,3_1_3,2022/4/17,8:00,61,66
�n����ʂ�,3_1_3,2022/4/17,9:00,102,113
�n����ʂ�,3_1_3,2022/4/17,10:00,193,228
�n����ʂ�,3_1_3,2022/4/17,11:00,261,269
�n����ʂ�,3_1_3,2022/4/17,12:00,352,306
�n����ʂ�,3_1_3,2022/4/17,13:00,387,297
�n����ʂ�,3_1_3,2022/4/17,14:00,361,341
�n����ʂ�,3_1_3,2022/4/17,15:00,335,261
�n����ʂ�,3_1_3,2022/4/17,16:00,304,223
�n����ʂ�,3_1_3,2022/4/17,17:00,204,117
�n����ʂ�,3_1_3,2022/4/17,18:00,129,114
�n����ʂ�,3_1_3,2022/4/17,19:00,42,63
�n����ʂ�,3_1_3,2022/4/17,20:00,16,7
�n����ʂ�,3_1_3,2022/4/17,21:00,18,2
�n����ʂ�,3_1_3,2022/4/17,22:00,3,1
�n����ʂ�,3_1_3,2022/4/17,23:00,8,7
�n����ʂ�,3_1_3,2022/4/18,0:00,0,0
�n����ʂ�,3_1_3,2022/4/18,1:00,0,1
�n����ʂ�,3_1_3,2022/4/18,2:00,1,0
�n����ʂ�,3_1_3,2022/4/18,3:00,1,1
�n����ʂ�,3_1_3,2022/4/18,4:00,3,3
�n����ʂ�,3_1_3,2022/4/18,5:00,13,15
�n����ʂ�,3_1_3,2022/4/18,6:00,46,49
�n����ʂ�,3_1_3,2022/4/18,7:00,89,381
�n����ʂ�,3_1_3,2022/4/18,8:00,121,315
�n����ʂ�,3_1_3,2022/4/18,9:00,165,106
�n����ʂ�,3_1_3,2022/4/18,10:00,152,155
�n����ʂ�,3_1_3,2022/4/18,11:00,174,169
�n����ʂ�,3_1_3,2022/4/18,12:00,240,202
�n����ʂ�,3_1_3,2022/4/18,13:00,219,170
�n����ʂ�,3_1_3,2022/4/18,14:00,142,154
�n����ʂ�,3_1_3,2022/4/18,15:00,256,146
�n����ʂ�,3_1_3,2022/4/18,16:00,243,130
�n����ʂ�,3_1_3,2022/4/18,17:00,303,106
�n����ʂ�,3_1_3,2022/4/18,18:00,321,119
�n����ʂ�,3_1_3,2022/4/18,19:00,50,57
�n����ʂ�,3_1_3,2022/4/18,20:00,23,8
�n����ʂ�,3_1_3,2022/4/18,21:00,17,3
�n����ʂ�,3_1_3,2022/4/18,22:00,5,4
�n����ʂ�,3_1_3,2022/4/18,23:00,3,1
�n����ʂ�,3_1_3,2022/4/19,0:00,3,0
�n����ʂ�,3_1_3,2022/4/19,1:00,1,0
�n����ʂ�,3_1_3,2022/4/19,2:00,1,1
�n����ʂ�,3_1_3,2022/4/19,3:00,3,1
�n����ʂ�,3_1_3,2022/4/19,4:00,4,2
�n����ʂ�,3_1_3,2022/4/19,5:00,30,19
�n����ʂ�,3_1_3,2022/4/19,6:00,46,52
�n����ʂ�,3_1_3,2022/4/19,7:00,83,397
�n����ʂ�,3_1_3,2022/4/19,8:00,117,326
�n����ʂ�,3_1_3,2022/4/19,9:00,144,155
�n����ʂ�,3_1_3,2022/4/19,10:00,193,166
�n����ʂ�,3_1_3,2022/4/19,11:00,237,179
�n����ʂ�,3_1_3,2022/4/19,12:00,255,201
�n����ʂ�,3_1_3,2022/4/19,13:00,177,156
�n����ʂ�,3_1_3,2022/4/19,14:00,187,123
�n����ʂ�,3_1_3,2022/4/19,15:00,152,129
�n����ʂ�,3_1_3,2022/4/19,16:00,245,109
�n����ʂ�,3_1_3,2022/4/19,17:00,296,91
�n����ʂ�,3_1_3,2022/4/19,18:00,347,97
�n����ʂ�,3_1_3,2022/4/19,19:00,66,83
�n����ʂ�,3_1_3,2022/4/19,20:00,24,4
�n����ʂ�,3_1_3,2022/4/19,21:00,33,3
�n����ʂ�,3_1_3,2022/4/19,22:00,14,1
�n����ʂ�,3_1_3,2022/4/19,23:00,2,0
�n����ʂ�,3_1_3,2022/4/20,0:00,1,0
�n����ʂ�,3_1_3,2022/4/20,1:00,1,2
�n����ʂ�,3_1_3,2022/4/20,2:00,1,1
�n����ʂ�,3_1_3,2022/4/20,3:00,2,3
�n����ʂ�,3_1_3,2022/4/20,4:00,5,3
�n����ʂ�,3_1_3,2022/4/20,5:00,25,27
�n����ʂ�,3_1_3,2022/4/20,6:00,46,61
�n����ʂ�,3_1_3,2022/4/20,7:00,112,467
�n����ʂ�,3_1_3,2022/4/20,8:00,128,389
�n����ʂ�,3_1_3,2022/4/20,9:00,150,132
�n����ʂ�,3_1_3,2022/4/20,10:00,159,167
�n����ʂ�,3_1_3,2022/4/20,11:00,180,152
�n����ʂ�,3_1_3,2022/4/20,12:00,225,197
�n����ʂ�,3_1_3,2022/4/20,13:00,197,133
�n����ʂ�,3_1_3,2022/4/20,14:00,144,138
�n����ʂ�,3_1_3,2022/4/20,15:00,198,118
�n����ʂ�,3_1_3,2022/4/20,16:00,442,105
�n����ʂ�,3_1_3,2022/4/20,17:00,235,116
�n����ʂ�,3_1_3,2022/4/20,18:00,180,102
�n����ʂ�,3_1_3,2022/4/20,19:00,55,66
�n����ʂ�,3_1_3,2022/4/20,20:00,28,6
�n����ʂ�,3_1_3,2022/4/20,21:00,25,3
�n����ʂ�,3_1_3,2022/4/20,22:00,10,7
�n����ʂ�,3_1_3,2022/4/20,23:00,5,2
�n����ʂ�,3_1_3,2022/4/21,0:00,6,1
�n����ʂ�,3_1_3,2022/4/21,1:00,2,0
�n����ʂ�,3_1_3,2022/4/21,2:00,2,0
�n����ʂ�,3_1_3,2022/4/21,3:00,2,2
�n����ʂ�,3_1_3,2022/4/21,4:00,1,3
�n����ʂ�,3_1_3,2022/4/21,5:00,17,19
�n����ʂ�,3_1_3,2022/4/21,6:00,38,31
�n����ʂ�,3_1_3,2022/4/21,7:00,74,288
�n����ʂ�,3_1_3,2022/4/21,8:00,121,264
�n����ʂ�,3_1_3,2022/4/21,9:00,136,110
�n����ʂ�,3_1_3,2022/4/21,10:00,163,140
�n����ʂ�,3_1_3,2022/4/21,11:00,131,162
�n����ʂ�,3_1_3,2022/4/21,12:00,210,139
�n����ʂ�,3_1_3,2022/4/21,13:00,211,137
�n����ʂ�,3_1_3,2022/4/21,14:00,120,107
�n����ʂ�,3_1_3,2022/4/21,15:00,104,93
�n����ʂ�,3_1_3,2022/4/21,16:00,130,64
�n����ʂ�,3_1_3,2022/4/21,17:00,229,61
�n����ʂ�,3_1_3,2022/4/21,18:00,190,102
�n����ʂ�,3_1_3,2022/4/21,19:00,26,36
�n����ʂ�,3_1_3,2022/4/21,20:00,9,4
�n����ʂ�,3_1_3,2022/4/21,21:00,11,1
�n����ʂ�,3_1_3,2022/4/21,22:00,3,2
�n����ʂ�,3_1_3,2022/4/21,23:00,7,0
�n����ʂ�,3_1_3,2022/4/22,0:00,2,1
�n����ʂ�,3_1_3,2022/4/22,1:00,0,0
�n����ʂ�,3_1_3,2022/4/22,2:00,3,1
�n����ʂ�,3_1_3,2022/4/22,3:00,3,9
�n����ʂ�,3_1_3,2022/4/22,4:00,4,2
�n����ʂ�,3_1_3,2022/4/22,5:00,20,20
�n����ʂ�,3_1_3,2022/4/22,6:00,42,29
�n����ʂ�,3_1_3,2022/4/22,7:00,70,270
�n����ʂ�,3_1_3,2022/4/22,8:00,94,271
�n����ʂ�,3_1_3,2022/4/22,9:00,141,115
�n����ʂ�,3_1_3,2022/4/22,10:00,279,312
�n����ʂ�,3_1_3,2022/4/22,11:00,382,275
�n����ʂ�,3_1_3,2022/4/22,12:00,449,375
�n����ʂ�,3_1_3,2022/4/22,13:00,325,274
�n����ʂ�,3_1_3,2022/4/22,14:00,164,140
�n����ʂ�,3_1_3,2022/4/22,15:00,268,138
�n����ʂ�,3_1_3,2022/4/22,16:00,251,156
�n����ʂ�,3_1_3,2022/4/22,17:00,272,123
�n����ʂ�,3_1_3,2022/4/22,18:00,360,119
�n����ʂ�,3_1_3,2022/4/22,19:00,68,94
�n����ʂ�,3_1_3,2022/4/22,20:00,27,11
�n����ʂ�,3_1_3,2022/4/22,21:00,24,8
�n����ʂ�,3_1_3,2022/4/22,22:00,17,6
�n����ʂ�,3_1_3,2022/4/22,23:00,8,0
�n����ʂ�,3_1_3,2022/4/23,0:00,4,1
�n����ʂ�,3_1_3,2022/4/23,1:00,2,3
�n����ʂ�,3_1_3,2022/4/23,2:00,3,1
�n����ʂ�,3_1_3,2022/4/23,3:00,1,2
�n����ʂ�,3_1_3,2022/4/23,4:00,3,2
�n����ʂ�,3_1_3,2022/4/23,5:00,18,22
�n����ʂ�,3_1_3,2022/4/23,6:00,34,29
�n����ʂ�,3_1_3,2022/4/23,7:00,59,73
�n����ʂ�,3_1_3,2022/4/23,8:00,90,87
�n����ʂ�,3_1_3,2022/4/23,9:00,139,166
�n����ʂ�,3_1_3,2022/4/23,10:00,240,254
�n����ʂ�,3_1_3,2022/4/23,11:00,233,280
�n����ʂ�,3_1_3,2022/4/23,12:00,341,360
�n����ʂ�,3_1_3,2022/4/23,13:00,335,355
�n����ʂ�,3_1_3,2022/4/23,14:00,428,303
�n����ʂ�,3_1_3,2022/4/23,15:00,310,285
�n����ʂ�,3_1_3,2022/4/23,16:00,286,227
�n����ʂ�,3_1_3,2022/4/23,17:00,201,131
�n����ʂ�,3_1_3,2022/4/23,18:00,124,119
�n����ʂ�,3_1_3,2022/4/23,19:00,68,77
�n����ʂ�,3_1_3,2022/4/23,20:00,33,7
�n����ʂ�,3_1_3,2022/4/23,21:00,31,3
�n����ʂ�,3_1_3,2022/4/23,22:00,16,4
�n����ʂ�,3_1_3,2022/4/23,23:00,16,4
�n����ʂ�,3_1_3,2022/4/24,0:00,10,1
�n����ʂ�,3_1_3,2022/4/24,1:00,5,1
�n����ʂ�,3_1_3,2022/4/24,2:00,2,0
�n����ʂ�,3_1_3,2022/4/24,3:00,4,3
�n����ʂ�,3_1_3,2022/4/24,4:00,5,3
�n����ʂ�,3_1_3,2022/4/24,5:00,24,10
�n����ʂ�,3_1_3,2022/4/24,6:00,17,11
�n����ʂ�,3_1_3,2022/4/24,7:00,23,25
�n����ʂ�,3_1_3,2022/4/24,8:00,71,78
�n����ʂ�,3_1_3,2022/4/24,9:00,77,94
�n����ʂ�,3_1_3,2022/4/24,10:00,165,242
�n����ʂ�,3_1_3,2022/4/24,11:00,247,311
�n����ʂ�,3_1_3,2022/4/24,12:00,301,327
�n����ʂ�,3_1_3,2022/4/24,13:00,398,362
�n����ʂ�,3_1_3,2022/4/24,14:00,400,334
�n����ʂ�,3_1_3,2022/4/24,15:00,285,243
�n����ʂ�,3_1_3,2022/4/24,16:00,206,180
�n����ʂ�,3_1_3,2022/4/24,17:00,146,118
�n����ʂ�,3_1_3,2022/4/24,18:00,74,80
�n����ʂ�,3_1_3,2022/4/24,19:00,51,29
�n����ʂ�,3_1_3,2022/4/24,20:00,16,4
�n����ʂ�,3_1_3,2022/4/24,21:00,5,1
�n����ʂ�,3_1_3,2022/4/24,22:00,6,1
�n����ʂ�,3_1_3,2022/4/24,23:00,0,0
�n����ʂ�,3_1_3,2022/4/25,0:00,1,0
�n����ʂ�,3_1_3,2022/4/25,1:00,1,0
�n����ʂ�,3_1_3,2022/4/25,2:00,2,1
�n����ʂ�,3_1_3,2022/4/25,3:00,2,3
�n����ʂ�,3_1_3,2022/4/25,4:00,2,1
�n����ʂ�,3_1_3,2022/4/25,5:00,20,16
�n����ʂ�,3_1_3,2022/4/25,6:00,37,41
�n����ʂ�,3_1_3,2022/4/25,7:00,76,280
�n����ʂ�,3_1_3,2022/4/25,8:00,113,362
�n����ʂ�,3_1_3,2022/4/25,9:00,151,151
�n����ʂ�,3_1_3,2022/4/25,10:00,183,171
�n����ʂ�,3_1_3,2022/4/25,11:00,222,154
�n����ʂ�,3_1_3,2022/4/25,12:00,305,219
�n����ʂ�,3_1_3,2022/4/25,13:00,260,209
�n����ʂ�,3_1_3,2022/4/25,14:00,176,133
�n����ʂ�,3_1_3,2022/4/25,15:00,327,105
�n����ʂ�,3_1_3,2022/4/25,16:00,207,134
�n����ʂ�,3_1_3,2022/4/25,17:00,297,131
�n����ʂ�,3_1_3,2022/4/25,18:00,261,111
�n����ʂ�,3_1_3,2022/4/25,19:00,79,71
�n����ʂ�,3_1_3,2022/4/25,20:00,27,5
�n����ʂ�,3_1_3,2022/4/25,21:00,17,7
�n����ʂ�,3_1_3,2022/4/25,22:00,12,6
�n����ʂ�,3_1_3,2022/4/25,23:00,3,0
�n����ʂ�,3_1_3,2022/4/26,0:00,0,0
�n����ʂ�,3_1_3,2022/4/26,1:00,5,0
�n����ʂ�,3_1_3,2022/4/26,2:00,0,3
�n����ʂ�,3_1_3,2022/4/26,3:00,1,2
�n����ʂ�,3_1_3,2022/4/26,4:00,2,2
�n����ʂ�,3_1_3,2022/4/26,5:00,24,23
�n����ʂ�,3_1_3,2022/4/26,6:00,35,35
�n����ʂ�,3_1_3,2022/4/26,7:00,58,158
�n����ʂ�,3_1_3,2022/4/26,8:00,80,196
�n����ʂ�,3_1_3,2022/4/26,9:00,111,110
�n����ʂ�,3_1_3,2022/4/26,10:00,132,115
�n����ʂ�,3_1_3,2022/4/26,11:00,138,113
�n����ʂ�,3_1_3,2022/4/26,12:00,161,180
�n����ʂ�,3_1_3,2022/4/26,13:00,120,135
�n����ʂ�,3_1_3,2022/4/26,14:00,119,114
�n����ʂ�,3_1_3,2022/4/26,15:00,87,89
�n����ʂ�,3_1_3,2022/4/26,16:00,116,99
�n����ʂ�,3_1_3,2022/4/26,17:00,152,78
�n����ʂ�,3_1_3,2022/4/26,18:00,136,64
�n����ʂ�,3_1_3,2022/4/26,19:00,35,25
�n����ʂ�,3_1_3,2022/4/26,20:00,9,4
�n����ʂ�,3_1_3,2022/4/26,21:00,10,4
�n����ʂ�,3_1_3,2022/4/26,22:00,7,2
�n����ʂ�,3_1_3,2022/4/26,23:00,3,1
�n����ʂ�,3_1_3,2022/4/27,0:00,1,0
�n����ʂ�,3_1_3,2022/4/27,1:00,2,0
�n����ʂ�,3_1_3,2022/4/27,2:00,2,2
�n����ʂ�,3_1_3,2022/4/27,3:00,2,2
�n����ʂ�,3_1_3,2022/4/27,4:00,5,2
�n����ʂ�,3_1_3,2022/4/27,5:00,24,21
�n����ʂ�,3_1_3,2022/4/27,6:00,38,45
�n����ʂ�,3_1_3,2022/4/27,7:00,80,321
�n����ʂ�,3_1_3,2022/4/27,8:00,119,310
�n����ʂ�,3_1_3,2022/4/27,9:00,141,130
�n����ʂ�,3_1_3,2022/4/27,10:00,177,162
�n����ʂ�,3_1_3,2022/4/27,11:00,286,188
�n����ʂ�,3_1_3,2022/4/27,12:00,316,274
�n����ʂ�,3_1_3,2022/4/27,13:00,221,265